• In Latvia
  • List of Countries
  • For 7 days
  • Water Temperature
  • Satellite Maps
  • Weather Map
  • Weather Widgets
  • user-avatar
    Login

    Hourly Weather Bisagi

    Today, 22 October, Monday

    Time Temperature Precipitation Wind Pressure Humidity
    00:00 +3°C° 0 mm 1 mps 705 mmHg 89%
    01:00 +2°C° 0 mm 0 mps 705 mmHg 89%
    02:00 +2°C° 0 mm 1 mps 704 mmHg 89%
    03:00 +2°C° 0 mm 1 mps 704 mmHg 89%
    04:00 +2°C° 0 mm 1 mps 704 mmHg 89%
    05:00 +1°C° 0 mm 0 mps 704 mmHg 88%
    06:00 +2°C° 0 mm 0 mps 704 mmHg 86%
    07:00 +2°C° 0 mm 0 mps 704 mmHg 85%
    08:00 +4°C° 0 mm 0 mps 704 mmHg 76%
    09:00 +7°C° 0 mm 0 mps 705 mmHg 68%
    10:00 +9°C° 0 mm 0 mps 705 mmHg 59%
    11:00 +10°C° 0 mm 0 mps 705 mmHg 56%
    12:00 +12°C° 0 mm 1 mps 704 mmHg 54%
    13:00 +12°C° 0 mm 1 mps 704 mmHg 52%
    14:00 +11°C° 0 mm 1 mps 704 mmHg 56%
    15:00 +10°C° 0 mm 1 mps 703 mmHg 60%
    16:00 +9°C° 0 mm 1 mps 703 mmHg 65%
    17:00 +8°C° 0 mm 1 mps 703 mmHg 70%
    18:00 +7°C° 0 mm 1 mps 703 mmHg 75%
    19:00 +5°C° 0 mm 1 mps 703 mmHg 80%
    20:00 +6°C° 0.1 mm 1 mps 703 mmHg 80%
    21:00 +5°C° 0.1 mm 2 mps 703 mmHg 80%
    22:00 +5°C° 0.1 mm 2 mps 703 mmHg 80%
    23:00 +5°C° 0.2 mm 2 mps 703 mmHg 82%

    Tomorrow, 23 October, Tuesday

    Time Temperature Precipitation Wind Pressure Humidity
    00:00 +5°C° 0.2 mm 2 mps 703 mmHg 83%
    01:00 +5°C° 0.2 mm 2 mps 703 mmHg 85%
    02:00 +5°C° 0.1 mm 2 mps 703 mmHg 87%
    03:00 +4°C° 0.1 mm 2 mps 703 mmHg 89%
    04:00 +4°C° 0.1 mm 2 mps 702 mmHg 91%
    05:00 +4°C° 0 mm 2 mps 702 mmHg 90%
    06:00 +3°C° 0 mm 2 mps 702 mmHg 89%
    07:00 +3°C° 0 mm 2 mps 702 mmHg 89%
    08:00 +3°C° 0 mm 3 mps 702 mmHg 82%
    09:00 +4°C° 0 mm 3 mps 701 mmHg 75%
    10:00 +4°C° 0 mm 3 mps 701 mmHg 68%
    11:00 +5°C° 0.1 mm 4 mps 700 mmHg 67%
    12:00 +5°C° 0.1 mm 5 mps 699 mmHg 66%
    13:00 +5°C° 0.1 mm 5 mps 699 mmHg 65%
    14:00 +5°C° 0.2 mm 5 mps 698 mmHg 68%
    15:00 +3°C° 0.2 mm 6 mps 697 mmHg 70%
    16:00 +3°C° 0.2 mm 6 mps 696 mmHg 73%
    17:00 +3°C° 0.7 mm 6 mps 695 mmHg 76%
    18:00 +3°C° 0.7 mm 7 mps 694 mmHg 79%
    19:00 +3°C° 0.7 mm 7 mps 694 mmHg 83%
    20:00 +3°C° 0.8 mm 7 mps 693 mmHg 83%
    21:00 +4°C° 0.8 mm 7 mps 693 mmHg 84%
    22:00 +4°C° 0.8 mm 7 mps 692 mmHg 84%
    23:00 +4°C° 1.2 mm 7 mps 691 mmHg 85%

    Day after tomorrow, 24 October, Wednesday

    Time Temperature Precipitation Wind Pressure Humidity
    00:00 +5°C° 1.2 mm 7 mps 691 mmHg 86%
    01:00 +5°C° 1.2 mm 7 mps 690 mmHg 87%
    02:00 +5°C° 1.4 mm 8 mps 689 mmHg 86%
    03:00 +6°C° 1.4 mm 9 mps 688 mmHg 86%
    04:00 +6°C° 1.4 mm 9 mps 688 mmHg 86%
    05:00 +5°C° 2 mm 9 mps 688 mmHg 83%
    06:00 +3°C° 2 mm 9 mps 688 mmHg 80%
    07:00 +2°C° 2 mm 9 mps 688 mmHg 77%
    08:00 +2°C° 0.3 mm 9 mps 689 mmHg 74%
    09:00 +1°C° 0.3 mm 9 mps 689 mmHg 71%
    10:00 0°C° 0.3 mm 9 mps 690 mmHg 67%
    11:00 0°C° 0.2 mm 9 mps 690 mmHg 65%
    12:00 +1°C° 0.2 mm 9 mps 691 mmHg 63%
    13:00 +1°C° 0.2 mm 9 mps 691 mmHg 61%
    14:00 +1°C° 0.1 mm 8 mps 691 mmHg 60%
    15:00 0°C° 0.1 mm 7 mps 692 mmHg 59%
    16:00 0°C° 0.1 mm 7 mps 692 mmHg 58%
    17:00 +1°C° 0.1 mm 6 mps 693 mmHg 59%
    18:00 -1°C° 0.1 mm 6 mps 693 mmHg 59%
    19:00 -1°C° 0.1 mm 6 mps 694 mmHg 60%
    20:00 -2°C° 0 mm 6 mps 694 mmHg 62%
    21:00 -2°C° 0 mm 6 mps 695 mmHg 64%
    22:00 -1°C° 0 mm 5 mps 695 mmHg 65%
    23:00 -2°C° 0 mm 5 mps 696 mmHg 69%

    25 October, Thursday

    Time Temperature Precipitation Wind Pressure Humidity
    00:00 -2°C° 0 mm 5 mps 696 mmHg 72%
    01:00 -2°C° 0 mm 4 mps 696 mmHg 76%
    02:00 -2°C° 0 mm 4 mps 697 mmHg 78%
    03:00 -2°C° 0 mm 4 mps 697 mmHg 80%
    04:00 -3°C° 0 mm 4 mps 697 mmHg 82%
    05:00 -2°C° 0 mm 3 mps 697 mmHg 83%
    06:00 -2°C° 0 mm 3 mps 698 mmHg 84%
    07:00 -2°C° 0 mm 3 mps 698 mmHg 85%
    08:00 -1°C° 0 mm 3 mps 698 mmHg 78%
    09:00 0°C° 0 mm 4 mps 698 mmHg 72%
    10:00 +3°C° 0 mm 4 mps 699 mmHg 66%
    11:00 +2°C° 0 mm 5 mps 698 mmHg 65%
    12:00 +3°C° 0 mm 5 mps 698 mmHg 65%
    13:00 +5°C° 0 mm 5 mps 698 mmHg 64%
    14:00 +4°C° 0 mm 4 mps 697 mmHg 69%
    15:00 +4°C° 0 mm 4 mps 697 mmHg 74%
    16:00 +4°C° 0 mm 3 mps 697 mmHg 79%
    17:00 +4°C° 0 mm 3 mps 697 mmHg 81%
    18:00 +4°C° 0 mm 3 mps 697 mmHg 83%
    19:00 +4°C° 0 mm 4 mps 697 mmHg 85%
    20:00 +4°C° 0 mm 3 mps 697 mmHg 87%
    21:00 +4°C° 0 mm 3 mps 697 mmHg 89%
    22:00 +4°C° 0 mm 3 mps 697 mmHg 91%
    23:00 +4°C° 0.1 mm 3 mps 697 mmHg 92%

    26 October, Friday

    Time Temperature Precipitation Wind Pressure Humidity
    00:00 +4°C° 0.1 mm 3 mps 696 mmHg 92%
    01:00 +4°C° 0.1 mm 3 mps 696 mmHg 92%
    02:00 +4°C° 0 mm 3 mps 696 mmHg 92%
    03:00 +5°C° 0 mm 2 mps 696 mmHg 92%
    04:00 +5°C° 0 mm 2 mps 696 mmHg 93%
    05:00 +4°C° 0 mm 2 mps 696 mmHg 93%
    06:00 +4°C° 0 mm 2 mps 696 mmHg 93%
    07:00 +4°C° 0 mm 2 mps 696 mmHg 93%
    08:00 +5°C° 0 mm 2 mps 696 mmHg 87%
    09:00 +7°C° 0 mm 2 mps 696 mmHg 81%
    10:00 +8°C° 0 mm 3 mps 696 mmHg 75%
    11:00 +9°C° 0 mm 3 mps 696 mmHg 71%
    12:00 +10°C° 0 mm 3 mps 695 mmHg 67%
    13:00 +11°C° 0 mm 3 mps 695 mmHg 63%
    14:00 +10°C° 0 mm 3 mps 695 mmHg 68%
    15:00 +9°C° 0 mm 2 mps 694 mmHg 72%
    16:00 +8°C° 0 mm 2 mps 694 mmHg 77%
    17:00 +7°C° 0 mm 2 mps 693 mmHg 81%
    18:00 +7°C° 0 mm 2 mps 693 mmHg 84%
    19:00 +6°C° 0 mm 2 mps 693 mmHg 88%
    20:00 +5°C° 0 mm 2 mps 693 mmHg 89%
    21:00 +5°C° 0 mm 2 mps 693 mmHg 90%
    22:00 +5°C° 0 mm 2 mps 692 mmHg 90%
    23:00 +5°C° 0 mm 2 mps 692 mmHg 91%

    27 October, Saturday

    Time Temperature Precipitation Wind Pressure Humidity
    00:00 +6°C° 0 mm 2 mps 692 mmHg 91%
    01:00 +6°C° 0 mm 2 mps 692 mmHg 92%
    02:00 +6°C° 0 mm 2 mps 692 mmHg 92%
    03:00 +6°C° 0 mm 2 mps 691 mmHg 92%
    04:00 +6°C° 0 mm 2 mps 691 mmHg 93%
    05:00 +6°C° 0 mm 2 mps 691 mmHg 93%
    06:00 +6°C° 0 mm 2 mps 691 mmHg 93%
    07:00 +6°C° 0 mm 2 mps 691 mmHg 93%
    08:00 +8°C° 0.1 mm 2 mps 690 mmHg 88%
    09:00 +10°C° 0.1 mm 2 mps 690 mmHg 83%
    10:00 +11°C° 0.1 mm 3 mps 690 mmHg 78%
    11:00 +12°C° 0.1 mm 3 mps 690 mmHg 78%
    12:00 +12°C° 0.1 mm 3 mps 689 mmHg 78%
    13:00 +12°C° 0.1 mm 3 mps 689 mmHg 78%
    14:00 +12°C° 0.2 mm 3 mps 688 mmHg 80%
    15:00 +12°C° 0.2 mm 3 mps 688 mmHg 81%
    16:00 +12°C° 0.2 mm 3 mps 687 mmHg 82%
    17:00 +11°C° 0.1 mm 3 mps 687 mmHg 84%
    18:00 +11°C° 0.1 mm 3 mps 687 mmHg 85%
    19:00 +11°C° 0.1 mm 3 mps 687 mmHg 86%
    20:00 +11°C° 0.3 mm 3 mps 687 mmHg 86%
    21:00 +10°C° 0.3 mm 4 mps 687 mmHg 87%
    22:00 +10°C° 0.3 mm 4 mps 686 mmHg 88%
    23:00 +10°C° 1 mm 4 mps 687 mmHg 89%
    Show more